Home > Weather > Knittelfeld > Past weeks

Flag for Austria Past Weather in Knittelfeld, Styria, Austria — Yesterday and Last 2 Weeks

Now
73 °F

Scattered clouds.


Feels Like: 76 °F
Forecast: 62 / 76 °F
Wind: 2 mph from North

Location: Zeltweg

Current Time: Jul 27, 2016 at 11:48:13 AM

Latest Report: Jul 27, 2016 at 10:50 AM


Visibility: 19 mi

Pressure: 30.09 "Hg (27.94 "Hg at 641m altitude)

Humidity: 61%

Dew Point: 59 °F

Location of KnittelfeldLocation

Past Weather in Knittelfeld — Graph

°F

Knittelfeld Temperature Yesterday

Maximum temperature yesterday: 81 °F (at 2:50 PM)
Minimum temperature yesterday: 63 °F (at 4:50 AM)
Average temperature yesterday: 70 °F

High & Low Weather Summary for the Past Weeks

 TemperatureHumidityPressure
High82 °F (Jul 20, 2:50 PM)100% (Jul 14, 5:50 AM)30.24 "Hg (Jul 14, 5:50 AM)
Low43 °F (Jul 15, 5:50 AM)32% (Jul 20, 3:50 PM)29.86 "Hg (Jul 13, 6:50 PM)
Average67 °F66%30.09 "Hg
* Reported Jul 12 10:20 AM — Jul 27 10:50 AM, Knittelfeld, Weather by CustomWeather, © 2016

Note: Actual official high and low records may vary slightly from our data, if they occured in-between our weather recording intervals... More about our weather records

Advertising

Knittelfeld Weather History for the Previous 24 Hours

Scroll right to see more
 ConditionsComfort  
Time TempWeatherWind HumidityBarometerVisibility
10:50 AM
Wed, Jul 27
73 °FScattered clouds.2 mph61%30.09 "Hg19 mi
9:50 AM68 °FScattered clouds.3 mph78%30.09 "Hg19 mi
8:50 AM64 °FScattered clouds.1 mph83%30.12 "Hg12 mi
7:50 AM63 °FScattered clouds.1 mph88%30.12 "Hg9 mi
6:50 AM61 °FPartly sunny.3 mph94%30.12 "Hg7 mi
5:50 AM59 °FFog.No wind94%30.12 "Hg6 mi
10:50 PM
Tue, Jul 26
64 °FPassing clouds.5 mph88%30.12 "Hg12 mi
9:50 PM66 °FPassing clouds.6 mph88%30.12 "Hg12 mi
8:50 PM68 °FPartly sunny.5 mph83%30.09 "Hg12 mi
7:50 PM72 °FPartly sunny.2 mph73%30.09 "Hg19 mi
6:50 PM72 °FPartly sunny.3 mph65%30.07 "Hg19 mi
5:50 PM72 °FPartly sunny.5 mph65%30.07 "Hg19 mi
4:50 PM73 °FScattered clouds.12 mph53%30.07 "Hg19 mi
3:50 PM77 °FPassing clouds.6 mph57%30.07 "Hg19 mi
2:50 PM81 °FScattered clouds.3 mph48%30.07 "Hg19 mi
1:50 PM79 °FPassing clouds.3 mph54%30.09 "Hg19 mi
12:50 PM77 °FScattered clouds.2 mph54%30.12 "Hg19 mi
11:50 AM73 °FScattered clouds.2 mph69%30.12 "Hg19 mi
Weather by CustomWeather, © 2016

See weather overviewHow to use our weather pages